TimeEDT,TemperatureF,Dew PointF,Humidity,Sea Level PressureIn,VisibilityMPH,Wind Direction,Wind SpeedMPH,Gust SpeedMPH,PrecipitationIn,Events,Conditions,WindDirDegrees,DateUTC
12:54 AM,61.0,54.0,78,29.94,10.0,SSE,9.2,-,N/A,,Overcast,150,2013-03-12 04:54:00
1:54 AM,61.0,55.0,81,29.89,10.0,SSE,11.5,-,N/A,,Overcast,150,2013-03-12 05:54:00
2:54 AM,61.0,57.0,87,29.89,10.0,SE,5.8,-,0.00,Rain,Light Rain,140,2013-03-12 06:54:00
3:54 AM,62.1,60.1,93,29.85,10.0,SSE,11.5,-,0.01,,Overcast,150,2013-03-12 07:54:00
4:54 AM,62.1,61.0,96,29.83,5.0,SSE,10.4,-,0.09,Rain,Rain,160,2013-03-12 08:54:00
5:54 AM,63.0,61.0,93,29.83,7.0,South,9.2,-,0.10,Rain,Light Rain,170,2013-03-12 09:54:00
6:15 AM,62.6,60.8,94,29.84,2.0,Variable,5.8,-,0.07,Rain,Rain,0,2013-03-12 10:15:00
6:21 AM,62.6,60.8,94,29.83,3.0,South,10.4,17.3,0.09,Rain,Rain,170,2013-03-12 10:21:00
6:33 AM,62.6,60.8,94,29.84,5.0,South,10.4,17.3,0.12,Rain,Rain,180,2013-03-12 10:33:00
6:49 AM,62.6,60.8,94,29.84,6.0,South,10.4,21.9,0.14,Rain,Light Rain,190,2013-03-12 10:49:00
6:54 AM,62.1,61.0,96,29.84,5.0,South,8.1,21.9,0.15,Rain,Light Rain,190,2013-03-12 10:54:00
7:29 AM,62.6,60.8,94,29.85,4.0,South,9.2,-,0.07,Rain,Rain,190,2013-03-12 11:29:00
7:37 AM,62.6,60.8,94,29.84,8.0,South,9.2,-,0.07,Rain,Light Rain,190,2013-03-12 11:37:00
7:54 AM,63.0,61.0,93,29.83,7.0,SSW,8.1,-,0.09,Rain,Light Rain,200,2013-03-12 11:54:00
8:11 AM,62.6,60.8,94,29.82,6.0,South,9.2,-,0.01,Rain,Light Rain,190,2013-03-12 12:11:00
8:18 AM,62.6,60.8,94,29.82,6.0,SSW,8.1,-,0.02,Rain,Light Rain,200,2013-03-12 12:18:00
8:36 AM,62.6,62.6,100,29.84,9.0,SSW,9.2,-,0.02,,Overcast,200,2013-03-12 12:36:00
8:45 AM,62.6,62.6,100,29.84,10.0,SSW,9.2,-,0.02,,Overcast,200,2013-03-12 12:45:00
8:54 AM,63.0,62.1,97,29.83,10.0,SSW,6.9,-,0.02,,Overcast,200,2013-03-12 12:54:00
9:24 AM,64.4,62.6,94,29.83,10.0,South,6.9,-,N/A,,Overcast,190,2013-03-12 13:24:00
9:44 AM,64.4,62.6,94,29.84,10.0,SSW,5.8,-,N/A,,Mostly Cloudy,200,2013-03-12 13:44:00
9:51 AM,64.4,62.6,94,29.84,10.0,SSW,5.8,-,N/A,,Mostly Cloudy,200,2013-03-12 13:51:00
9:54 AM,64.0,62.1,93,29.84,10.0,South,5.8,-,N/A,,Mostly Cloudy,190,2013-03-12 13:54:00
10:23 AM,64.4,62.6,94,29.84,10.0,SSW,5.8,-,N/A,,Overcast,200,2013-03-12 14:23:00
10:31 AM,64.4,62.6,94,29.84,10.0,Variable,4.6,-,N/A,,Overcast,0,2013-03-12 14:31:00
10:54 AM,64.9,62.1,90,29.84,7.0,SSW,4.6,-,0.00,Rain,Light Rain,200,2013-03-12 14:54:00
11:54 AM,66.0,62.1,87,29.84,10.0,SW,12.7,-,0.00,,Overcast,220,2013-03-12 15:54:00
12:54 PM,66.0,61.0,84,29.84,10.0,SW,17.3,23.0,N/A,,Overcast,220,2013-03-12 16:54:00
1:03 PM,66.2,60.8,83,29.84,10.0,SW,13.8,25.3,N/A,,Overcast,220,2013-03-12 17:03:00
1:27 PM,66.2,60.8,83,29.83,10.0,SW,13.8,20.7,N/A,,Overcast,230,2013-03-12 17:27:00
1:54 PM,66.9,62.1,84,29.82,10.0,SW,11.5,-,N/A,,Overcast,230,2013-03-12 17:54:00
2:23 PM,69.8,62.6,78,29.80,10.0,SSW,8.1,-,N/A,,Mostly Cloudy,210,2013-03-12 18:23:00
2:54 PM,69.1,62.1,78,29.79,10.0,WSW,11.5,17.3,N/A,,Mostly Cloudy,240,2013-03-12 18:54:00
3:54 PM,71.1,61.0,70,29.76,10.0,SSW,9.2,-,N/A,,Mostly Cloudy,200,2013-03-12 19:54:00
4:54 PM,72.0,57.9,61,29.76,10.0,WSW,12.7,-,N/A,,Partly Cloudy,240,2013-03-12 20:54:00
5:54 PM,72.0,54.0,53,29.76,10.0,WSW,12.7,-,N/A,,Partly Cloudy,250,2013-03-12 21:54:00
6:54 PM,70.0,48.0,46,29.78,10.0,West,9.2,-,N/A,,Partly Cloudy,280,2013-03-12 22:54:00
7:54 PM,63.0,46.9,56,29.82,10.0,West,3.5,-,N/A,,Clear,280,2013-03-12 23:54:00
8:54 PM,59.0,48.9,69,29.84,10.0,NW,8.1,-,N/A,,Clear,320,2013-03-13 00:54:00
9:54 PM,60.1,48.9,67,29.88,10.0,NNW,6.9,-,N/A,,Clear,330,2013-03-13 01:54:00